Cloud_Cover
5 5 10 18 5 10 14 71 16 16 86 100 100 100 95 60 12 5 6 5 5 5 5 5 4 5 5 5 9 37 98 100 100 100 100 97 100 100
50 74 65 43 65 47 73 67 82 35 92 100 100 100 100 100 100 100 100 100 86 27 10 5 5 5 5 5 5 5 10 100 11 23 84 100 100 100
64 63 100 90 100 100 83 99 23 6 84 100 100 100 100 100 100 100 100 100 100 100 100 86 68 67 61 42 10 5 17 5 66 100 82 93 100 100
62 43 85 66 82 79 86 100 96 24 20 98 96 100 68 100 100 100 100 100 100 100 100 100 100 100 100 99 99 100 100 90 94 59 83 100 100 100
43 61 97 84 99 100 100 99 100 100 45 91 77 5 54 100 100 100 99 100 100 100 100 100 100 91 100 100 100 100 100 87 100 76 39 14 74 100
19 6 12 32 81 72 46 66 87 83 85 48 37 6 21 90 43 59 72 28 84 94 99 100 100 100 92 92 71 100 100 83 80 78 89 74 67 84
5 5 5 1 0 0 4 5 5 5 11 30 77 99 47 5 10 35 99 98 84 71 34 51 26 79 100 100 100 92 64 21 13 6 10 23 39 65
0 0 0 0 0 0 1 5 5 8 9 8 18 23 6 5 5 27 5 5 44 5 5 5 5 5 5 5 5 24 99 100 100 100 100 97 38 97
0 0 0 0 0 0 0 2 4 4 5 10 30 5 5 5 6 58 91 85 96 87 75 100 94 9 30 5 5 5 18 10 97 100 100 100 97 47
5 5 5 27 27 2 2 4 5 5 5 5 5 5 5 5 54 96 100 77 74 74 100 100 45 5 5 5 5 5 5 5 18 100 100 100 100 28
35 87 91 68 84 5 4 5 5 5 5 4 5 5 9 67 93 100 27 61 12 88 84 100 6 6 5 5 5 4 5 28 100 100 100 98 96 93
5 5 2 0 4 5 28 51 26 5 5 5 5 5 5 5 5 5 5 17 95 100 88 66 7 36 80 5 5 5 5 5 5 5 17 100 100 100
5 3 1 0 5 5 5 28 5 42 92 93 5 5 10 5 5 5 21 100 100 100 92 100 95 87 100 87 85 8 85 5 5 74 100 96 100 100
5 5 5 2 5 5 9 54 100 100 100 95 6 5 5 5 5 5 20 95 86 100 100 100 100 100 100 88 100 48 96 16 76 100 93 98 99 100
47 38 5 61 85 82 97 100 100 100 90 97 39 5 20 6 5 35 99 100 100 86 100 94 100 100 100 100 100 100 96 81 88 88 54 98 52 67
100 100 100 100 100 100 100 100 100 100 100 53 88 20 18 27 60 95 98 99 97 97 100 92 93 100 100 100 100 100 88 99 99 68 62 95 100 99
100 99 98 100 100 100 100 99 96 64 25 10 44 91 82 91 99 100 90 90 100 97 100 100 100 100 100 100 100 99 100 100 99 78 99 84 76 69
100 100 100 100 91 97 81 11 26 97 67 28 51 75 100 100 100 100 98 100 100 99 88 96 100 99 85 86 100 100 100 100 97 80 80 96 96 88
80 100 100 100 88 52 77 100 97 76 20 91 89 100 99 100 100 94 100 92 100 97 100 100 100 100 100 100 99 99 100 100 100 100 99 80 100 100
41 36 91 96 92 99 100 94 65 90 90 100 100 100 98 99 97 90 100 100 100 100 100 100 100 100 100 100 100 100 100 100 100 100 100 100 100 100
98 92 92 96 92 99 100 100 100 100 100 100 90 86 81 100 100 98 100 100 100 100 100 100 100 100 100 100 100 100 100 100 100 100 100 100 100 100
99 99 83 79 98 100 100 99 100 100 90 86 80 97 100 100 100 100 100 100 100 100 100 100 100 100 100 100 100 100 100 100 100 100 100 100 100 100
86 95 92 88 87 100 100 96 94 86 100 100 100 100 100 100 100 100 100 100 100 100 100 100 100 100 100 100 100 100 100 100 100 100 100 100 100 100